Location: Unspecified
(0.0000°N, 0.0000°E)
Time: 13:41:18
(UTC+01:00)

Ariane H10 - Visible Passes

Search period start: 10 February 2016 00:00
Search period end: 20 February 2016 00:00
Orbit: 493 x 34797 km, 7.7° (Epoch: 09 February)

Date Brightness Start Highest point End Pass type
(mag) Time Alt. Az. Time Alt. Az. Time Alt. Az.
11 Feb 7.2 06:19:40 13° W 06:44:15 82° S 16:01:56 10° E visible
12 Feb 6.8 02:55:01 44° E 02:55:01 44° E 12:11:02 10° E visible
13 Feb 5.7 10:10:37 10° W 19:34:50 67° NNW 19:41:08 10° ENE visible
14 Feb 7.3 06:23:22 12° W 06:51:15 82° S 16:05:54 10° E visible
15 Feb 6.8 02:58:43 49° E 02:58:43 49° E 12:16:43 10° E visible
16 Feb 5.7 10:16:03 10° W 19:38:50 64° NNW 19:44:45 10° ENE visible
17 Feb 7.4 06:27:02 11° W 06:58:51 81° S 16:09:45 10° E visible
18 Feb 6.7 03:02:21 53° E 03:02:21 53° E 12:22:06 10° E visible
19 Feb 5.6 10:21:37 10° W 19:42:45 61° NNW 19:48:18 10° ENE visible
